Beaver Island, MI

5:00 AM EDT on May 28, 2017 (GMT -0400)
Beaver Island

Weather History for KSJX - November, 2012

Change the Weather History Date:

Wednesday, November 28, 2012

  Actual Average Record
Temperature  
Mean Temperature 32 °F -  
Max Temperature 35 °F 35 °F 57 °F (1990)
Min Temperature 28 °F 25 °F 10 °F (1976)
Degree Days  
Heating Degree Days 34    
Moisture  
Dew Point 19 °F    
Average Humidity 64    
Maximum Humidity 75    
Minimum Humidity 55    
Precipitation  
Precipitation 0.00 in - - ()
Sea Level Pressure  
Sea Level Pressure 30.17 in    
Wind  
Wind Speed 12 mph (West)    
Max Wind Speed 21 mph    
Max Gust Speed 28 mph    
Visibility 10 miles    
Events Snow    
Averages and records for this station are not official NWS values.
T = Trace of Precipitation, MM = Missing Value Source: NWS Daily Summary

Daily Weather History Graph

Daily Weather History Graph

Search for Another Location

Airport or City:

Trip Planner

Search our weather history database for the weather conditions in past years. The results will help you decide how hot, cold, wet, or windy it might be!

Date:

Astronomy

Nov. 28, 2012 Rise Set
Actual Time 7:59 AM EST 5:00 PM EST
Civil Twilight 7:26 AM EST 5:34 PM EST
Nautical Twilight 6:49 AM EST 6:11 PM EST
Astronomical Twilight 6:13 AM EST 6:47 PM EST
Moon 5:15 PM EST 7:56 AM EST
Length of Visible Light 10h 08m
Length of Day
9h 01m
Full, 100% of the Moon is Illuminated
Nov 28
Full
Dec 6
Last Quarter
Dec 13
New
Dec 20
First Quarter
Dec 28
Full

Hourly Weather History & Observations

Time (EST) Temp. Windchill Dew Point Humidity Pressure Visibility Wind Dir Wind Speed Gust Speed Precip Events Conditions
4:42 AM 32.0 °F 24.2 °F 24.8 °F 75% 30.09 in 10.0 mi NW 9.2 mph - N/A   Overcast
5:18 AM 32.0 °F 23.6 °F 24.8 °F 75% 30.09 in 10.0 mi WNW 10.4 mph 19.6 mph N/A   Overcast
6:20 AM 30.2 °F 20.2 °F 23.0 °F 75% 30.12 in 10.0 mi NW 12.7 mph 21.9 mph N/A   Overcast
6:42 AM 30.2 °F 20.2 °F 21.2 °F 69% 30.14 in 10.0 mi WNW 12.7 mph 23.0 mph N/A   Overcast
7:49 AM - - - N/A% - - NW 13.8 mph 18.4 mph N/A   Unknown
8:21 AM - - - N/A% - - North - - N/A   Unknown
8:42 AM 28.4 °F 18.5 °F 21.2 °F 74% 30.18 in 10.0 mi WNW 11.5 mph 19.6 mph N/A   Overcast
9:06 AM 28.4 °F 18.0 °F 19.4 °F 69% 30.19 in 10.0 mi NW 12.7 mph 20.7 mph N/A   Overcast
9:38 AM 28.4 °F 18.0 °F 19.4 °F 69% 30.20 in 10.0 mi WNW 12.7 mph 18.4 mph N/A   Mostly Cloudy
9:59 AM 28.4 °F 17.5 °F 19.4 °F 69% 30.20 in 10.0 mi WNW 13.8 mph 17.3 mph N/A   Overcast
10:21 AM 28.4 °F 19.7 °F 19.8 °F 70% 30.21 in 10.0 mi WNW 9.2 mph 18.4 mph N/A Snow Light Snow
10:37 AM 28.2 °F 18.9 °F 19.2 °F 69% 30.21 in 10.0 mi WNW 10.4 mph - N/A   Overcast
10:56 AM 28.2 °F 18.9 °F 19.4 °F 70% 30.21 in 10.0 mi WNW 10.4 mph 19.6 mph N/A   Overcast
11:17 AM 28.0 °F 19.3 °F 18.7 °F 68% 30.21 in 10.0 mi WNW 9.2 mph 16.1 mph N/A   Overcast
11:37 AM 28.2 °F 19.5 °F 19.2 °F 69% 30.22 in 10.0 mi WNW 9.2 mph 16.1 mph N/A   Overcast
11:56 AM 28.2 °F 19.5 °F 19.0 °F 68% 30.22 in 10.0 mi West 9.2 mph 16.1 mph N/A   Overcast
12:17 PM 28.8 °F 21.7 °F 19.0 °F 67% 30.22 in 10.0 mi West 6.9 mph - N/A   Overcast
12:37 PM 29.3 °F 21.5 °F 19.0 °F 66% 30.22 in 10.0 mi WNW 8.1 mph 17.3 mph N/A   Overcast
12:56 PM 28.9 °F 20.4 °F 17.8 °F 63% 30.20 in 10.0 mi WNW 9.2 mph - N/A   Overcast
1:17 PM 29.3 °F 20.8 °F 16.9 °F 60% 30.21 in 10.0 mi West 9.2 mph - N/A   Overcast
1:36 PM 29.3 °F 21.5 °F 16.5 °F 59% 30.21 in 10.0 mi WNW 8.1 mph - N/A   Overcast
1:57 PM 29.3 °F 18.6 °F 16.0 °F 58% 30.21 in 10.0 mi West 13.8 mph 19.6 mph N/A   Overcast
2:16 PM 28.8 °F 19.0 °F 15.8 °F 58% 30.21 in 10.0 mi WSW 11.5 mph 16.1 mph N/A   Overcast
2:37 PM 28.8 °F 18.4 °F 16.9 °F 61% 30.20 in 10.0 mi West 12.7 mph 18.4 mph N/A   Overcast
2:57 PM 28.0 °F 17.5 °F 16.0 °F 61% 30.20 in 10.0 mi WSW 12.7 mph 19.6 mph N/A   Scattered Clouds
3:16 PM 28.4 °F 16.2 °F 15.6 °F 59% 30.20 in 10.0 mi WSW 17.3 mph 20.7 mph N/A   Mostly Cloudy
3:37 PM 28.2 °F 16.8 °F 15.6 °F 59% 30.19 in 10.0 mi West 15.0 mph - N/A   Mostly Cloudy
3:57 PM 29.3 °F 19.1 °F 15.1 °F 55% 30.19 in 10.0 mi West 12.7 mph 17.3 mph N/A   Scattered Clouds
4:16 PM 28.2 °F 15.9 °F 15.4 °F 59% 30.19 in 10.0 mi WSW 17.3 mph 21.9 mph N/A   Mostly Cloudy
4:37 PM 28.4 °F 17.5 °F 14.7 °F 57% 30.20 in 10.0 mi West 13.8 mph 19.6 mph N/A   Scattered Clouds
4:57 PM 28.9 °F 17.7 °F 17.6 °F 63% 30.20 in 10.0 mi West 15.0 mph 18.4 mph N/A   Mostly Cloudy
5:16 PM 29.7 °F 19.1 °F 18.3 °F 63% 30.19 in 10.0 mi West 13.8 mph 21.9 mph N/A   Mostly Cloudy
5:37 PM 29.8 °F 21.5 °F 17.8 °F 61% 30.18 in 10.0 mi West 9.2 mph 19.6 mph N/A   Scattered Clouds
5:56 PM 29.7 °F 19.6 °F 18.3 °F 63% 30.18 in 10.0 mi West 12.7 mph - N/A   Scattered Clouds
6:17 PM 30.6 °F 20.7 °F 18.5 °F 61% 30.18 in 10.0 mi WSW 12.7 mph - N/A   Mostly Cloudy
6:37 PM 31.1 °F 21.4 °F 20.1 °F 64% 30.18 in 10.0 mi WSW 12.7 mph - N/A   Mostly Cloudy
6:56 PM 31.5 °F 21.8 °F 19.9 °F 62% 30.17 in 10.0 mi WSW 12.7 mph - N/A   Mostly Cloudy
7:17 PM 31.8 °F 22.8 °F 20.3 °F 62% 30.17 in 10.0 mi SW 11.5 mph - N/A   Mostly Cloudy
7:37 PM 31.1 °F 21.9 °F 20.1 °F 64% 30.16 in 10.0 mi WSW 11.5 mph 16.1 mph N/A   Scattered Clouds
7:56 PM 31.8 °F 22.3 °F 20.7 °F 63% 30.17 in 10.0 mi WSW 12.7 mph - N/A   Scattered Clouds
8:17 PM 32.0 °F 22.1 °F 19.0 °F 59% 30.16 in 10.0 mi WSW 13.8 mph 18.4 mph N/A   Scattered Clouds
8:37 PM 32.2 °F 21.8 °F 21.2 °F 64% 30.16 in 10.0 mi WSW 15.0 mph 20.7 mph N/A   Scattered Clouds
8:56 PM 32.7 °F 22.1 °F 21.0 °F 62% 30.16 in 10.0 mi WSW 16.1 mph - N/A   Mostly Cloudy
9:17 PM 32.9 °F 22.4 °F 20.3 °F 60% 30.14 in 10.0 mi WSW 16.1 mph 24.2 mph N/A   Scattered Clouds
9:36 PM 33.1 °F 23.0 °F 20.8 °F 61% 30.14 in 10.0 mi WSW 15.0 mph 19.6 mph N/A   Mostly Cloudy
9:57 PM 33.3 °F 23.2 °F 21.4 °F 62% 30.13 in 10.0 mi WSW 15.0 mph 19.6 mph N/A   Scattered Clouds
10:16 PM 34.0 °F 24.6 °F 22.5 °F 63% 30.13 in 10.0 mi WSW 13.8 mph 21.9 mph N/A   Scattered Clouds
10:37 PM 34.3 °F 25.5 °F 22.1 °F 61% 30.12 in 10.0 mi WSW 12.7 mph 25.3 mph N/A   Scattered Clouds
10:57 PM 34.7 °F 24.3 °F 23.2 °F 63% 30.11 in 10.0 mi WSW 17.3 mph 25.3 mph N/A   Scattered Clouds
11:16 PM 34.7 °F 23.4 °F 23.9 °F 65% 30.11 in 10.0 mi WSW 20.7 mph 25.3 mph N/A   Scattered Clouds
11:37 PM 35.2 °F 24.1 °F 24.1 °F 64% 30.10 in 10.0 mi WSW 20.7 mph 27.6 mph N/A   Clear
11:57 PM 35.8 °F 24.8 °F 24.8 °F 64% 30.10 in 10.0 mi WSW 20.7 mph 27.6 mph N/A   Clear